Regional Weather Roundup
Issued by NWS

Home | Current Version | Previous Version | Graphics & Text | Print | Product List | Glossary On
Versions: 1 2 3 4 5 6 7 8 9 10 11 12 13 14 15 16 17 18 19 20 21 22 23 24 25 26 27 28
000
ASUS45 KBOU 290210
RWRCO

WEATHER ROUNDUP FOR COLORADO
NATIONAL WEATHER SERVICE DENVER/BOULDER CO
800 PM MDT WED SEP 28 2016

NOTE: "FAIR" INDICATES FEW OR NO CLOUDS BELOW 12000 FEET WITH NO
SIGNIFICANT WEATHER AND/OR OBSTRUCTIONS TO VISIBILITY.

COZ001>005-013-030-031-290300-
...NORTHWEST COLORADO...

CITY           SKY/WX    TMP DP  RH WIND       PRES   REMARKS
CRAIG          FAIR      63  34  33 SW6       30.27R
HAYDEN         MOCLDY    63  34  34 S8        30.30R
MEEKER         FAIR      64  41  42 NE3       30.28R
MOUNT WERNER   NOT AVBL
STEAMBOAT SPGS FAIR      64  35  32 E3        30.32R
WALDEN           N/A     59  27  29 SE10      30.43R
$$

COZ006>008-011-290300-
...WEST CENTRAL VALLEYS...

CITY           SKY/WX    TMP DP  RH WIND       PRES   REMARKS
GRAND JUNCTION FAIR      70  40  33 SW6       30.18R
MONTROSE       FAIR      68  44  42 SE9       30.26R
EAGLE          FAIR      70  30  23 CALM      30.31R
RIFLE          FAIR      71  41  33 SE8       30.21R
DELTA          MOCLDY    78  36  22 S5        30.20R
NUCLA          FAIR      72  34  25 SW3       30.31R
$$

COZ017>023-064>068-290300-
...SOUTHWEST COLORADO...

CITY           SKY/WX    TMP DP  RH WIND       PRES   REMARKS
DURANGO        FAIR      67  35  30 NE6       30.33R
CORTEZ         CLOUDY    67  43  41 W5        30.29R
PAGOSA SPRINGS MOCLDY    60  31  34 CALM      30.42R
TELLURIDE      FAIR      62  30  30 S3        30.51S
WOLF CREEK PAS CLOUDY    45  27  49 MISG      30.74R
$$

COZ009-010-012-014-032>034-037-058>063-290300-
...CENTRAL COLORADO...

CITY           SKY/WX    TMP DP  RH WIND       PRES   REMARKS
ASPEN          MOCLDY    60  33  36 S8        30.38R
BUENA VISTA    FAIR      62  27  26 E6        30.47R
COPPER MTN     FAIR      54  21  28 SE9G23    30.72R
BERTHOUD PASS  FAIR      37  27  65 MISG      30.75R
COTTONWOOD PAS FAIR      61  23  23 SE13G23   30.59R
GUNNISON       FAIR      64  21  19 S5        30.40R
KREMMLING      MOCLDY    66  25  20 E9        30.40R
LEADVILLE      FAIR      54  23  30 SE7       30.57R
MONARCH PASS   FAIR      45  27  49 NE12      30.82S
SALIDA         FAIR      67  28  22 SE15G22   30.50R
SUNLIGHT       MOCLDY    55  27  33 CALM      30.64R
WILKERSON PASS FAIR      46  23  39 S16       30.72R
$$

COZ069>075-290300-
...SAN LUIS VALLEY/SANGRE DE CRISTO MOUNTAINS...

CITY           SKY/WX    TMP DP  RH WIND       PRES   REMARKS
ALAMOSA        FAIR      62  26  25 SE12      30.41R
LA VETA PASS   FAIR      52  23  32 MISG      30.63R
SAGUACHE       NOT AVBL
$$

COZ035-036-038>040-290300-
...NORTHERN COLORADO FRONT RANGE...

CITY           SKY/WX    TMP DP  RH WIND       PRES   REMARKS
DENVER INTL AP FAIR      65  34  31 E13       30.32R
DMNS CITY PARK   N/A     70  31  23 E7        30.32R
AURORA         PTCLDY    64  31  29 SE8       30.34R
FRONT RANGE AP PTCLDY    64  30  27 NE8       30.34R
ERIE MUNI ARPT FAIR      69  33  25 E8        30.32R
BOULDER MUN AP FAIR      68  34  28 NW5       30.34R
CENTENNIAL     FAIR      67  30  25 SE8       30.34R
BROOMFIELD     PTCLDY    72  32  23 N7        30.35R
FORT COLLINS   FAIR      68  34  28 E9        30.31R
LONGMONT       FAIR      64  38  38 W8        30.34R
$$

COZ041-046-047-076>085-087-088-290300-
...PIKES PEAK/PALMER DIVIDE AND SOUTHERN FOOTHILLS...

CITY           SKY/WX    TMP DP  RH WIND       PRES   REMARKS
COLO. SPRINGS  FAIR      67  29  24 SE9       30.39R
A. F. ACADEMY  FAIR      64  30  28 S6        30.40R
SCHRIEVER AFB  NOT AVBL
ELLICOTT       NOT AVBL
FALCON         FAIR      59  29  32 S7        30.44R
FORT CARSON    FAIR      69  30  23 S6        30.36R
LIMON          FAIR      63  35  35 E10       30.35R
MONUMENT HILL  FAIR      55  30  38 S10       30.44R
TRINIDAD       FAIR      64  28  25 S6        30.35R
$$

COZ042>045-048>051-090-091-290300-
...NORTHEAST COLORADO...

CITY           SKY/WX    TMP DP  RH WIND       PRES   REMARKS
GREELEY ARPT   FAIR      64  37  36 E8        30.31R
AKRON          FAIR      61  36  39 E9        30.33R
BURLINGTON     FAIR      62  41  46 E9        30.32R
WRAY           NOT AVBL
STERLING       FAIR      68  37  32 E9        30.29R
HOLYOKE        FAIR      63  41  45 E8        30.31R
FORT MORGAN    FAIR      62  34  34 E10       30.32R
$$

COZ086-089-092>099-290300-
...SOUTHEAST COLORADO...

CITY           SKY/WX    TMP DP  RH WIND       PRES   REMARKS
PUEBLO         FAIR      69  30  23 E7        30.28R
LA JUNTA       FAIR      69  36  29 E9        30.27R
LAMAR          FAIR      69  38  32 SE9       30.24R
SPRINGFIELD      N/A     64  38  38 E10       30.30R
$$




USA.gov is the U.S. government's official web portal to all federal, state and local government web resources and services.